EW2255 Weather Reports


Display with metric or nautical units.
time (UTC)temp
F
wind
direction
speed
MPH
gust
MPH
rain 1hr
in
rain 24hr
in
rain mn
in
humidity
%
barometer
mb
20170622140312 68 209 5.0 10.0 0.00 0.05 0.05 82 1003.1
20170622135821 67 236 5.0 10.0 0.00 0.05 0.05 83 1003.3
20170622135323 67 231 4.0 8.0 0.00 0.05 0.05 85 1003.1
20170622134946 66 222 0.0 7.0 0.00 0.05 0.05 86 1002.8
20170622134826 66 267 2.0 7.0 0.00 0.05 0.05 86 1003.4
20170622134335 66 180 1.0 8.0 0.00 0.05 0.05 87 1003.5
20170622133816 66 190 2.0 7.0 0.00 0.05 0.05 87 1003.7
20170622133343 65 233 3.0 7.0 0.00 0.05 0.05 88 1003.3
20170622133322 65 227 3.0 7.0 0.00 0.05 0.05 88 1003.7
20170622132830 65 247 1.0 5.0 0.00 0.05 0.05 89 1003.4
20170622132313 64 258 2.0 4.0 0.00 0.05 0.05 90 1003.2
20170622131818 63 200 1.0 2.0 0.00 0.05 0.05 91 1003.3
20170622131747 63 247 0.0 3.0 0.00 0.05 0.05 90 1003.0
20170622131307 63 254 0.0 5.0 0.00 0.05 0.05 88 1003.5
20170622130820 64 254 3.0 5.0 0.00 0.05 0.05 89 1003.7
20170622130325 64 240 0.0 7.0 0.00 0.05 0.05 91 1003.6
20170622130143 63 243 0.0 7.0 0.00 0.05 0.05 91 1003.2
20170622125315 61 196 2.0 6.0 0.00 0.05 0.05 95 1003.6
20170622124825 60 250 1.0 4.0 0.00 0.05 0.05 95 1003.6
20170622124557 59 183 0.0 4.0 0.00 0.05 0.05 94 1003.2
20170622124308 59 264 0.0 4.0 0.00 0.05 0.05 93 1003.6
20170622123812 58 274 1.0 4.0 0.00 0.05 0.05 94 1003.7
20170622123322 58 284 1.0 4.0 0.00 0.05 0.05 93 1003.6
20170622123007 57 267 0.0 4.0 0.00 0.05 0.05 93 1003.1
20170622122826 58 251 0.0 3.0 0.00 0.05 0.05 93 1003.4
20170622122309 57 261 2.0 3.0 0.00 0.05 0.05 93 1003.3
20170622121819 57 252 0.0 2.0 0.00 0.05 0.05 93 1003.2
20170622121401 57 261 0.0 4.0 0.00 0.05 0.05 93 1002.7
20170622121322 57 260 0.0 4.0 0.00 0.05 0.05 93 1003.1
20170622120806 57 285 2.0 7.0 0.00 0.05 0.05 94 1003.0
20170622120311 57 58 1.0 7.0 0.00 0.05 0.05 94 1002.8
20170622115820 56 248 0.0 2.0 0.00 0.05 0.05 94 1002.6
20170622115754 56 248 0.0 2.0 0.00 0.05 0.05 94 1002.3
20170622115325 56 248 0.0 2.0 0.00 0.05 0.05 94 1002.6
20170622114811 56 248 0.0 2.0 0.00 0.05 0.05 95 1002.7
20170622114320 56 248 0.0 2.0 0.00 0.05 0.05 95 1002.6
20170622114202 55 248 0.0 2.0 0.00 0.05 0.05 95 1002.2
20170622113822 55 248 0.0 2.0 0.00 0.05 0.05 95 1002.8
20170622113333 55 248 0.0 1.0 0.00 0.05 0.05 95 1003.1
20170622112821 55 248 0.0 1.0 0.00 0.05 0.05 95 1003.2
20170622112516 54 248 0.0 0.0 0.00 0.05 0.05 95 1002.8
20170622112411 55 248 0.0 2.0 0.00 0.05 0.05 95 1003.2
20170622111811 55 248 0.0 2.0 0.00 0.05 0.05 95 1003.2
20170622111316 55 248 0.0 0.0 0.00 0.05 0.05 95 1003.0
20170622110806 55 248 0.0 2.0 0.00 0.05 0.05 95 1002.9
20170622110724 54 248 0.0 3.0 0.00 0.05 0.05 95 1002.5
20170622110318 54 248 1.0 4.0 0.01 0.05 0.05 95 1002.9
20170622105821 54 247 0.0 4.0 0.01 0.05 0.05 95 1002.8
20170622105324 54 244 2.0 4.0 0.01 0.05 0.05 95 1002.7
20170622105129 54 229 0.0 5.0 0.01 0.05 0.05 95 1002.3
20170622104808 54 221 1.0 6.0 0.01 0.05 0.05 95 1002.6
20170622104319 54 226 0.0 6.0 0.01 0.05 0.05 95 1002.8
20170622103823 54 230 2.0 5.0 0.01 0.05 0.05 95 1002.9
20170622103532 54 231 2.0 7.0 0.01 0.05 0.05 95 1002.5
20170622103307 54 230 3.0 7.0 0.01 0.05 0.05 95 1002.8
20170622102816 54 232 5.0 7.0 0.01 0.05 0.05 95 1002.7
20170622102318 54 248 4.0 5.0 0.01 0.05 0.05 95 1002.5
20170622101934 54 245 2.0 5.0 0.01 0.05 0.05 95 1002.1
20170622101829 54 244 1.0 5.0 0.01 0.05 0.05 95 1002.4
20170622101312 55 238 2.0 5.0 0.01 0.05 0.05 95 1002.4
20170622100815 55 232 2.0 5.0 0.01 0.05 0.05 95 1002.6
20170622100338 54 232 1.0 7.0 0.00 0.04 0.04 95 1002.3
20170622100321 55 232 1.0 7.0 0.00 0.04 0.04 95 1002.7
20170622095830 55 234 4.0 7.0 0.00 0.04 0.04 95 1002.9
20170622095314 55 246 3.0 7.0 0.00 0.04 0.04 95 1003.0
20170622094818 55 254 5.0 6.0 0.00 0.04 0.04 95 1003.3
20170622094738 55 255 4.0 6.0 0.00 0.04 0.04 95 1002.9
20170622094328 55 253 4.0 6.0 0.00 0.04 0.04 95 1003.4
20170622093814 55 252 4.0 6.0 0.00 0.04 0.04 96 1003.2
20170622093316 54 236 3.0 6.0 0.00 0.04 0.04 96 1003.4
20170622093135 54 219 1.0 6.0 0.00 0.04 0.04 95 1003.0
20170622092827 54 160 1.0 4.0 0.00 0.04 0.04 95 1003.5
20170622092309 54 148 0.0 1.0 0.00 0.04 0.04 96 1003.7
20170622091812 54 147 0.0 2.0 0.03 0.04 0.04 95 1003.8
20170622091535 53 126 0.0 2.0 0.04 0.04 0.04 96 1003.6
20170622091317 54 93 0.0 1.0 0.04 0.04 0.04 96 1004.0
20170622090806 53 93 0.0 0.0 0.04 0.04 0.04 95 1003.9
20170622090324 53 93 0.0 0.0 0.04 0.04 0.04 95 1004.0
20170622085846 53 93 0.0 0.0 0.04 0.04 0.04 95 1003.7
20170622085806 53 93 0.0 0.0 0.04 0.04 0.04 95 1004.2
20170622085309 53 93 0.0 1.0 0.04 0.04 0.04 95 1004.5
20170622084820 53 93 0.0 1.0 0.04 0.04 0.04 94 1004.7
20170622084323 53 94 0.0 3.0 0.04 0.04 0.04 94 1004.7
20170622084240 53 95 0.0 3.0 0.04 0.04 0.04 94 1004.3
20170622083832 53 98 1.0 6.0 0.04 0.04 0.04 94 1004.9
20170622083316 54 90 2.0 6.0 0.04 0.04 0.04 93 1005.0
20170622082819 54 91 2.0 5.0 0.04 0.04 0.04 93 1005.3
20170622082645 53 80 2.0 7.0 0.04 0.04 0.04 93 1005.0
20170622082322 54 96 1.0 7.0 0.04 0.04 0.04 92 1005.6
20170622081806 54 16 1.0 6.0 0.00 0.00 0.00 92 1006.3
20170622081315 54 295 3.0 5.0 0.00 0.00 0.00 92 1006.2
20170622081044 54 300 0.0 4.0 0.00 0.00 0.00 92 1005.3
20170622080819 54 278 1.0 4.0 0.00 0.00 0.00 92 1005.6
20170622080311 54 92 0.0 2.0 0.00 0.00 0.00 93 1005.6
20170622075822 54 91 0.0 1.0 0.00 0.00 0.00 92 1005.4
20170622075357 53 92 0.0 0.0 0.00 0.00 0.00 92 1004.7
20170622075307 54 92 0.0 0.0 0.00 0.00 0.00 92 1005.3
20170622074811 54 92 0.0 0.0 0.00 0.00 0.00 92 1005.2
20170622074321 54 92 0.0 0.0 0.00 0.00 0.00 92 1005.3
20170622073825 54 92 0.0 0.0 0.00 0.00 0.00 92 1005.4
20170622073755 53 92 0.0 0.0 0.00 0.00 0.00 92 1005.0
20170622073309 53 92 0.0 0.0 0.00 0.00 0.00 92 1005.3
20170622072812 53 92 0.0 0.0 0.00 0.00 0.00 93 1005.3
20170622072322 53 92 0.0 3.0 0.00 0.00 0.00 93 1005.5
20170622072200 53 92 0.0 5.0 0.00 0.00 0.00 93 1005.2
20170622071825 53 92 0.0 5.0 0.00 0.00 0.00 92 1005.4
20170622071307 53 104 2.0 4.0 0.00 0.00 0.00 92 1005.6
20170622070817 53 98 2.0 4.0 0.00 0.00 0.00 92 1005.7
20170622070600 53 88 1.0 4.0 0.00 0.00 0.00 92 1005.4
20170622070321 53 83 1.0 4.0 0.00 0.00 0.00 92 1005.9
20170622065823 53 83 1.0 5.0 0.00 0.00 0.00 92 1006.1
20170622065313 53 79 0.0 5.0 0.00 0.00 0.00 92 1006.1
20170622064958 53 85 1.0 3.0 0.00 0.00 0.00 92 1005.8
20170622064817 53 93 2.0 3.0 0.00 0.00 0.00 91 1006.2
20170622064321 53 90 1.0 2.0 0.00 0.00 0.00 91 1006.3
20170622063829 54 81 0.0 2.0 0.00 0.00 0.00 92 1006.3
20170622063409 53 82 0.0 3.0 0.00 0.00 0.00 91 1005.9
20170622063313 54 82 0.0 3.0 0.00 0.00 0.00 91 1006.2
20170622062814 54 78 2.0 3.0 0.00 0.00 0.00 91 1006.1
20170622062324 54 315 1.0 3.0 0.00 0.00 0.00 91 1006.1
20170622061810 54 296 0.0 2.0 0.00 0.00 0.00 91 1006.3
20170622061759 54 296 0.0 2.0 0.00 0.00 0.00 91 1005.9
20170622061315 55 294 0.0 2.0 0.00 0.00 0.00 91 1006.2
20170622060818 55 294 0.0 4.0 0.00 0.00 0.00 91 1006.2
20170622060329 55 294 2.0 5.0 0.00 0.00 0.00 91 1006.4
20170622060203 54 280 1.0 5.0 0.00 0.00 0.00 91 1006.0
20170622055812 55 275 2.0 5.0 0.00 0.00 0.00 91 1006.3
20170622055316 55 267 4.0 5.0 0.00 0.00 0.00 91 1006.3
20170622054825 55 265 3.0 4.0 0.00 0.00 0.00 90 1006.1
20170622054606 54 250 3.0 4.0 0.00 0.00 0.00 90 1005.7
20170622054310 55 185 1.0 3.0 0.00 0.00 0.00 91 1006.0
20170622053814 55 185 2.0 3.0 0.00 0.00 0.00 90 1006.0
20170622053324 55 184 0.0 3.0 0.00 0.00 0.00 91 1006.1
20170622053010 54 184 1.0 3.0 0.00 0.00 0.00 91 1005.8
20170622052812 55 175 0.0 0.0 0.00 0.00 0.00 91 1006.2
20170622052317 54 132 0.0 0.0 0.00 0.00 0.00 90 1006.1
20170622051808 54 108 0.0 1.0 0.00 0.00 0.00 90 1006.2
20170622051330 54 102 0.0 1.0 0.00 0.00 0.00 90 1005.9
20170622051313 54 99 0.0 1.0 0.00 0.00 0.00 90 1006.3
20170622050823 54 89 0.0 0.0 0.00 0.00 0.00 90 1006.4
20170622050314 54 89 0.0 0.0 0.00 0.00 0.00 90 1006.6
20170622045818 54 89 0.0 0.0 0.00 0.00 0.00 90 1006.8
20170622045625 54 89 0.0 1.0 0.00 0.00 0.00 89 1006.3
20170622045328 54 89 0.0 1.0 0.00 0.00 0.00 89 1006.6
20170622044811 54 89 0.0 1.0 0.00 0.00 0.00 88 1006.7
20170622044314 55 89 0.0 0.0 0.00 0.00 0.00 88 1006.9
20170622044032 54 89 0.0 0.0 0.00 0.00 0.00 88 1006.8
20170622043825 55 89 0.0 0.0 0.00 0.00 0.00 88 1007.2
20170622043312 55 92 0.0 0.0 0.00 0.00 0.00 88 1007.0
20170622042816 55 92 0.0 2.0 0.00 0.00 0.00 88 1007.1
20170622042437 54 92 0.0 2.0 0.00 0.00 0.00 87 1006.8
20170622042319 55 92 0.0 3.0 0.00 0.00 0.00 87 1007.1
20170622041811 55 96 1.0 8.0 0.00 0.00 0.00 87 1006.9
20170622041320 55 103 4.0 8.0 0.00 0.00 0.00 86 1007.1
20170622040822 56 102 1.0 3.0 0.00 0.00 0.00 88 1007.3
20170622040736 55 102 0.0 4.0 0.00 0.00 0.00 88 1006.9
20170622040333 56 73 0.0 4.0 0.00 0.00 0.00 89 1007.5
20170622035815 56 274 0.0 1.0 0.00 0.00 0.00 89 1007.8
20170622035321 56 274 0.0 1.0 0.00 0.00 0.00 88 1007.7
20170622035136 56 274 0.0 1.0 0.00 0.00 0.00 88 1007.3
20170622034806 56 274 0.0 1.0 0.00 0.00 0.00 88 1007.7
20170622034315 57 274 0.0 1.0 0.00 0.00 0.00 87 1007.8
20170622033819 57 274 0.0 1.0 0.00 0.00 0.00 88 1007.7
20170622033610 56 274 0.0 4.0 0.00 0.00 0.00 88 1007.2
20170622033324 57 274 0.0 4.0 0.00 0.00 0.00 88 1007.6
20170622032807 56 275 3.0 4.0 0.00 0.00 0.00 88 1007.7
20170622032318 56 275 3.0 6.0 0.00 0.00 0.00 89 1007.6
20170622031944 56 286 3.0 6.0 0.00 0.00 0.00 89 1007.2
20170622031822 56 294 4.0 6.0 0.00 0.00 0.00 89 1007.6
20170622031308 56 250 5.0 6.0 0.00 0.00 0.00 90 1007.6
20170622030819 56 238 4.0 8.0 0.00 0.00 0.00 89 1007.4
20170622030352 56 246 5.0 8.0 0.00 0.00 0.00 89 1006.8
20170622030324 56 251 5.0 8.0 0.00 0.00 0.00 89 1007.3
20170622025808 56 262 4.0 7.0 0.00 0.00 0.00 89 1007.2
20170622025318 56 250 327.0 327.0 0.00 0.00 0.00 90 1007.2
20170622024820 56 250 6.0 7.0 0.00 0.00 0.00 90 1007.4
20170622024753 56 249 6.0 8.0 0.00 0.00 0.00 90 1007.0
20170622024322 57 245 6.0 9.0 0.00 0.00 0.00 90 1007.4
20170622023806 57 243 7.0 10.0 0.00 0.00 0.00 90 1007.4
20170622023315 57 256 8.0 9.0 0.00 0.00 0.00 90 1007.4
20170622023147 57 257 6.0 9.0 0.00 0.00 0.00 90 1007.0
20170622022819 57 255 6.0 9.0 0.00 0.00 0.00 90 1007.4
20170622022330 58 273 7.0 10.0 0.00 0.00 0.00 89 1007.3
20170622021814 58 256 7.0 10.0 0.00 0.00 0.00 89 1007.1
20170622021555 57 248 6.0 8.0 0.00 0.00 0.00 88 1006.7
20170622021319 58 252 6.0 7.0 0.00 0.00 0.00 88 1007.1
20170622020806 58 262 3.0 4.0 0.00 0.00 0.00 86 1007.3
20170622020319 58 92 0.0 2.0 0.00 0.00 0.00 86 1007.3
20170622015955 57 92 0.0 1.0 0.00 0.00 0.00 85 1007.1
20170622015820 58 92 0.0 2.0 0.00 0.00 0.00 86 1007.7
20170622015323 57 92 0.0 2.0 0.00 0.00 0.00 86 1008.0
20170622014805 57 92 1.0 5.0 0.00 0.00 0.00 85 1008.2
20170622014359 57 92 1.0 5.0 0.00 0.00 0.00 85 1008.0
20170622014316 57 92 1.0 5.0 0.00 0.00 0.00 85 1008.4
20170622013819 57 92 0.0 2.0 0.00 0.00 0.00 85 1008.4
20170622013311 57 92 1.0 2.0 0.00 0.00 0.00 84 1008.4
20170622012821 57 92 0.0 3.0 0.00 0.00 0.00 84 1008.7
20170622012703 57 92 0.0 5.0 0.00 0.00 0.00 84 1008.3
20170622012305 58 92 0.0 5.0 0.00 0.00 0.00 83 1008.8
20170622011809 58 92 3.0 8.0 0.00 0.00 0.00 83 1008.7
20170622011321 58 95 3.0 8.0 0.00 0.00 0.00 81 1008.7
20170622011106 58 56 1.0 7.0 0.00 0.00 0.00 81 1008.4
20170622010824 59 101 1.0 7.0 0.00 0.00 0.00 80 1008.7
20170622010308 59 96 3.0 7.0 0.00 0.00 0.00 78 1008.8
20170622005811 60 80 2.0 4.0 0.00 0.00 0.00 78 1008.9
20170622005509 60 82 0.0 5.0 0.00 0.00 0.00 77 1008.6
20170622005322 60 82 0.0 5.0 0.00 0.00 0.00 77 1008.9
20170622004808 61 84 2.0 5.0 0.00 0.00 0.00 75 1008.9
20170622004313 62 86 0.0 5.0 0.00 0.00 0.00 74 1008.9
20170622003947 62 101 2.0 5.0 0.00 0.00 0.00 72 1008.4
20170622003824 63 103 2.0 3.0 0.00 0.00 0.00 72 1008.8
20170622003308 64 63 0.0 4.0 0.00 0.00 0.00 69 1008.6
20170622002811 65 29 1.0 5.0 0.00 0.00 0.00 67 1008.5
20170622002322 67 22 1.0 5.0 0.00 0.00 0.00 65 1008.4
20170622002312 66 22 0.0 5.0 0.00 0.00 0.00 65 1008.1
20170622001806 68 19 1.0 4.0 0.00 0.00 0.00 63 1008.5
20170622001309 69 113 2.0 4.0 0.00 0.00 0.00 64 1008.4
20170622000813 69 32 0.0 5.0 0.00 0.00 0.00 63 1008.2
20170622000720 68 32 0.0 5.0 0.00 0.00 0.00 65 1007.9
20170622000322 69 32 0.0 5.0 0.00 0.00 0.00 63 1008.2
20170621235809 69 15 0.0 5.0 0.00 0.00 0.00 65 1008.2
20170621235314 69 64 0.0 2.0 0.00 0.00 0.00 64 1008.3
20170621235123 68 77 0.0 1.0 0.00 0.00 0.00 65 1008.0
20170621234825 69 77 0.0 1.0 0.00 0.00 0.00 65 1008.4
20170621234310 69 77 0.0 1.0 0.00 0.00 0.00 63 1008.3
20170621233816 69 77 0.0 2.0 0.00 0.00 0.00 63 1008.3
20170621233533 69 77 0.0 2.0 0.00 0.00 0.00 62 1007.8
20170621233328 69 77 0.0 2.0 0.00 0.00 0.00 61 1008.2
20170621232809 70 44 0.0 2.0 0.00 0.00 0.00 61 1008.4
20170621232315 70 48 0.0 5.0 0.00 0.00 0.00 60 1008.3
20170621231941 70 103 0.0 5.0 0.00 0.00 0.00 59 1008.1
20170621231817 70 103 1.0 5.0 0.00 0.00 0.00 60 1008.5
20170621231331 71 46 2.0 5.0 0.00 0.00 0.00 57 1008.5
20170621230815 72 53 1.0 4.0 0.00 0.00 0.00 59 1008.5
20170621230345 71 5 0.0 6.0 0.00 0.00 0.00 58 1008.3
20170621230320 72 5 0.0 6.0 0.00 0.00 0.00 58 1008.6
20170621225830 71 57 1.0 9.0 0.00 0.00 0.00 58 1008.5
20170621225313 71 81 5.0 9.0 0.00 0.00 0.00 56 1008.4
20170621224817 72 94 3.0 9.0 0.00 0.00 0.00 56 1008.3
20170621224739 71 103 3.0 9.0 0.00 0.00 0.00 56 1008.0
20170621224307 71 97 1.0 9.0 0.00 0.00 0.00 57 1008.4
20170621223814 72 101 6.0 9.0 0.00 0.00 0.00 55 1008.4
20170621223320 72 128 1.0 11.0 0.00 0.00 0.00 56 1008.4
20170621223201 71 121 2.0 11.0 0.00 0.00 0.00 55 1008.0
20170621222809 72 86 4.0 11.0 0.00 0.00 0.00 56 1008.4
20170621222313 72 107 6.0 9.0 0.00 0.00 0.00 53 1008.6
20170621221825 72 71 3.0 11.0 0.00 0.00 0.00 53 1008.6
20170621221457 72 28 4.0 11.0 0.00 0.00 0.00 53 1008.3
20170621221310 72 89 5.0 11.0 0.00 0.00 0.00 52 1008.7
20170621220815 73 83 4.0 9.0 0.00 0.00 0.00 51 1008.8
20170621220326 74 69 4.0 8.0 0.00 0.00 0.00 52 1008.9
20170621215901 74 67 1.0 7.0 0.00 0.00 0.00 50 1008.6
20170621215809 74 93 1.0 10.0 0.00 0.00 0.00 52 1008.9
20170621215315 75 119 2.0 10.0 0.00 0.00 0.00 50 1008.9
20170621214825 75 28 2.0 5.0 0.00 0.00 0.00 50 1008.9
20170621214311 75 355 0.0 6.0 0.00 0.00 0.00 51 1008.7
20170621214308 76 339 1.0 6.0 0.00 0.00 0.00 51 1009.1
20170621213812 76 53 2.0 6.0 0.00 0.00 0.00 51 1009.0
20170621213323 76 57 2.0 5.0 0.00 0.00 0.00 51 1009.1
20170621212805 75 37 1.0 8.0 0.00 0.00 0.00 52 1009.2
20170621212609 74 52 2.0 10.0 0.00 0.00 0.00 51 1008.9
20170621212315 75 82 4.0 10.0 0.00 0.00 0.00 49 1009.3
20170621211820 75 13 2.0 7.0 0.00 0.00 0.00 50 1009.2
20170621211306 74 71 3.0 9.0 0.00 0.00 0.00 49 1009.2
20170621211019 74 109 3.0 9.0 0.00 0.00 0.00 51 1008.8
20170621210815 74 78 5.0 9.0 0.00 0.00 0.00 51 1009.2
20170621210322 74 88 5.0 10.0 0.00 0.00 0.00 50 1009.1
20170621205807 74 94 4.0 10.0 0.00 0.00 0.00 51 1009.2
20170621205421 74 135 4.0 10.0 0.00 0.00 0.00 48 1008.9
20170621205318 75 96 5.0 10.0 0.00 0.00 0.00 49 1009.2
20170621204820 75 61 5.0 10.0 0.00 0.00 0.00 50 1009.3
20170621204322 75 99 3.0 11.0 0.00 0.00 0.00 50 1009.4
20170621203827 74 360 3.0 11.0 0.00 0.00 0.00 50 1009.0
20170621203807 75 86 4.0 11.0 0.00 0.00 0.00 50 1009.4
20170621203316 75 157 5.0 10.0 0.00 0.00 0.00 48 1009.5
20170621202819 76 58 3.0 6.0 0.00 0.00 0.00 47 1009.6
20170621202329 76 32 2.0 5.0 0.00 0.00 0.00 47 1009.7
20170621202216 75 105 1.0 5.0 0.00 0.00 0.00 48 1009.3
20170621201814 76 92 2.0 5.0 0.00 0.00 0.00 46 1009.6
20170621201317 76 304 2.0 5.0 0.00 0.00 0.00 47 1009.5
20170621200819 75 360 1.0 4.0 0.00 0.00 0.00 47 1009.6
20170621200617 75 350 1.0 4.0 0.00 0.00 0.00 48 1009.4
20170621200309 75 300 1.0 4.0 0.00 0.00 0.00 50 1009.9
20170621195811 73 325 0.0 4.0 0.00 0.00 0.00 50 1010.0
20170621195315 73 303 3.0 5.0 0.00 0.00 0.00 46 1010.3
20170621195021 72 306 3.0 5.0 0.00 0.00 0.00 46 1010.0
20170621194825 73 310 2.0 5.0 0.00 0.00 0.00 47 1010.3
20170621194307 73 306 3.0 4.0 0.00 0.00 0.00 44 1010.4
20170621193807 73 297 1.0 2.0 0.00 0.00 0.00 46 1010.4
20170621193422 73 297 1.0 2.0 0.00 0.00 0.00 46 1010.1
20170621193318 73 297 1.0 2.0 0.00 0.00 0.00 47 1010.4
20170621192817 73 297 1.0 2.0 0.00 0.00 0.00 45 1010.5
20170621192320 73 297 0.0 2.0 0.00 0.00 0.00 46 1010.5
20170621191825 72 297 0.0 3.0 0.00 0.00 0.00 49 1010.4
20170621191319 72 304 2.0 3.0 0.00 0.00 0.00 51 1010.7
20170621190306 71 288 2.0 4.0 0.00 0.00 0.00 53 1010.8
20170621190222 71 289 2.0 4.0 0.00 0.00 0.00 52 1010.6
20170621185815 71 301 2.0 3.0 0.00 0.01 0.00 56 1011.1
20170621185318 71 298 2.0 3.0 0.00 0.01 0.00 56 1011.2
20170621184808 71 303 2.0 3.0 0.00 0.01 0.00 56 1011.2
20170621184522 70 298 2.0 3.0 0.00 0.01 0.00 56 1010.9
20170621184317 71 284 3.0 3.0 0.00 0.01 0.00 55 1011.2
20170621183820 71 284 2.0 3.0 0.00 0.01 0.00 53 1011.2
20170621183324 71 282 2.0 3.0 0.00 0.01 0.00 55 1011.3
20170621182924 70 276 1.0 3.0 0.00 0.01 0.00 54 1011.2
20170621182805 71 275 2.0 3.0 0.00 0.01 0.00 53 1011.4
20170621182317 71 283 2.0 3.0 0.00 0.01 0.00 54 1011.5
20170621181807 71 268 2.0 3.0 0.00 0.01 0.00 54 1011.5
20170621181312 71 268 2.0 3.0 0.00 0.01 0.00 52 1011.5
20170621181224 71 268 2.0 3.0 0.00 0.01 0.00 54 1011.2
20170621180821 71 277 2.0 3.0 0.00 0.01 0.00 52 1011.4
20170621180305 71 280 1.0 3.0 0.00 0.01 0.00 52 1011.5
20170621175808 71 279 2.0 3.0 0.00 0.01 0.00 56 1011.6
20170621175632 70 272 1.0 3.0 0.00 0.01 0.00 57 1011.4
20170621175318 70 272 1.0 2.0 0.00 0.01 0.00 55 1011.8
20170621174822 70 275 1.0 2.0 0.00 0.01 0.00 53 1011.9
20170621174304 70 281 1.0 2.0 0.00 0.01 0.00 54 1012.0
20170621174027 70 281 1.0 2.0 0.00 0.01 0.00 55 1011.7
20170621173807 70 293 1.0 2.0 0.00 0.01 0.00 56 1011.9
20170621173320 70 290 1.0 2.0 0.00 0.01 0.00 56 1011.9
20170621172822 70 288 1.0 2.0 0.00 0.01 0.00 55 1012.1
20170621172430 70 286 1.0 2.0 0.00 0.01 0.00 55 1011.8
20170621172304 70 284 1.0 2.0 0.00 0.01 0.00 55 1012.0
20170621171814 70 237 1.0 2.0 0.00 0.01 0.00 54 1012.0
20170621171317 70 226 1.0 2.0 0.00 0.01 0.00 57 1012.0
20170621170835 69 226 0.0 2.0 0.00 0.01 0.00 56 1011.9
20170621170820 70 226 0.0 2.0 0.00 0.01 0.00 56 1012.1
20170621170311 69 226 0.0 2.0 0.00 0.01 0.00 60 1012.2
20170621165321 69 225 0.0 0.0 0.00 0.01 0.00 58 1012.3
20170621165236 69 225 0.0 0.0 0.00 0.01 0.00 59 1012.0
20170621164805 69 225 0.0 0.0 0.00 0.01 0.00 58 1012.3
20170621164315 69 225 0.0 1.0 0.00 0.01 0.00 57 1012.2
20170621163804 68 225 0.0 2.0 0.00 0.01 0.00 59 1012.3
20170621163546 68 225 0.0 2.0 0.00 0.01 0.00 61 1012.1
20170621163332 68 225 0.0 2.0 0.00 0.01 0.00 59 1012.4
20170621162812 68 225 0.0 1.0 0.00 0.01 0.00 62 1012.4
20170621162315 68 225 0.0 2.0 0.00 0.01 0.00 61 1012.3
20170621161938 67 225 0.0 2.0 0.00 0.01 0.00 62 1012.2
20170621161818 67 225 1.0 2.0 0.00 0.01 0.00 61 1012.4
20170621161328 67 225 1.0 2.0 0.00 0.01 0.00 62 1012.5
20170621160811 67 225 0.0 1.0 0.00 0.01 0.00 61 1012.4
20170621160342 67 225 0.0 1.0 0.00 0.01 0.00 62 1012.2
20170621160313 67 225 0.0 0.0 0.00 0.01 0.00 61 1012.4
20170621155821 67 225 0.0 0.0 0.00 0.01 0.00 62 1012.5
20170621155303 66 225 0.0 0.0 0.00 0.01 0.00 63 1012.4
20170621154806 66 225 0.0 1.0 0.00 0.01 0.00 65 1012.4
20170621154722 65 225 0.0 1.0 0.00 0.01 0.00 66 1012.2
20170621154316 66 225 0.0 2.0 0.00 0.01 0.00 67 1012.4
20170621153819 66 225 1.0 2.0 0.00 0.01 0.00 68 1012.5
20170621153323 65 225 0.0 2.0 0.00 0.01 0.00 68 1012.4
20170621153122 64 225 0.0 2.0 0.00 0.01 0.00 69 1012.3
20170621152805 65 225 1.0 2.0 0.00 0.01 0.00 71 1012.6
20170621152314 65 224 0.0 1.0 0.00 0.01 0.00 70 1012.5
20170621151813 64 224 0.0 2.0 0.00 0.01 0.00 70 1012.5
20170621151326 64 224 0.0 2.0 0.00 0.01 0.00 70 1012.3
20170621151312 64 224 1.0 2.0 0.00 0.01 0.00 70 1012.5
20170621150821 64 224 0.0 2.0 0.00 0.01 0.00 72 1012.5
20170621150306 64 224 2.0 2.0 0.00 0.01 0.00 71 1012.6
20170621145807 63 223 0.0 3.0 0.00 0.01 0.00 73 1012.6
20170621145720 63 223 0.0 3.0 0.00 0.01 0.00 73 1012.4
20170621145317 63 223 2.0 3.0 0.00 0.01 0.00 74 1012.7
20170621144817 63 223 1.0 2.0 0.00 0.01 0.00 76 1012.6
20170621144326 62 223 1.0 2.0 0.00 0.01 0.00 78 1012.7
20170621144115 62 223 0.0 2.0 0.00 0.01 0.00 80 1012.5
20170621143807 62 223 0.0 3.0 0.00 0.01 0.00 79 1012.7
20170621143311 62 223 1.0 3.0 0.00 0.01 0.00 80 1012.7
20170621142813 62 223 2.0 5.0 0.00 0.01 0.00 78 1012.7
20170621142515 62 223 1.0 5.0 0.00 0.01 0.00 77 1012.6
20170621142323 62 219 2.0 5.0 0.00 0.01 0.00 76 1012.7
20170621141810 62 229 2.0 4.0 0.00 0.01 0.00 77 1012.7
20170621141314 61 221 3.0 4.0 0.00 0.01 0.00 77 1012.7
20170621140918 60 221 1.0 5.0 0.00 0.01 0.00 79 1012.5
20170621140823 61 221 2.0 5.0 0.00 0.01 0.00 79 1012.7